Location: Brede
(50.9167°N, 0.6000°E)
Time: 18:47:10
(UTC+00:00)

X-37B - Visible Passes

Search period start: 06 December 2021 00:00
Search period end: 16 December 2021 00:00
Orbit: 330 x 341 km, 45.0° (Epoch: 20 November)

Date Brightness Start Highest point End Pass type
(mag) Time Alt. Az. Time Alt. Az. Time Alt. Az.
08 Dec 3.0 17:36:36 10° S 17:37:24 11° SSE 17:37:44 11° SSE visible
09 Dec 2.6 17:55:31 10° SSW 17:57:18 17° S 17:57:18 17° S visible
10 Dec 3.1 16:42:03 10° S 16:42:51 11° SSE 16:43:38 10° SE visible
10 Dec 2.6 18:15:20 10° SW 18:16:51 20° SSW 18:16:51 20° SSW visible
11 Dec 2.6 17:00:57 10° SSW 17:02:57 17° SSE 17:04:56 10° ESE visible
11 Dec 3.2 18:35:29 10° WSW 18:36:23 16° SW 18:36:23 16° SW visible
12 Dec 2.2 17:20:46 10° SW 17:23:07 23° S 17:24:42 15° SE visible
12 Dec 3.9 18:55:49 10° WSW 18:55:55 11° WSW 18:55:55 11° WSW visible
13 Dec 2.1 17:40:54 10° WSW 17:43:21 25° S 17:44:16 21° SSE visible
14 Dec 2.3 18:01:14 10° WSW 18:03:33 22° S 18:03:53 21° S visible
15 Dec 2.3 16:46:20 10° WSW 16:48:47 25° S 16:51:13 10° ESE visible
15 Dec 3.0 18:21:50 10° WSW 18:23:35 16° SSW 18:23:35 16° SSW visible
